• Em Portugal
  • Lista de países
  • Para 7 dias
  • Temperatura da água
  • Mapas de satélite
  • Mapa do tempo
  • Widgets de tempo
  • user-avatar
    Iniciar Sessão

    Previsão horária em Seki

    Hoje, 25 Setembro, Terça-feira

    Tempo Temperatura Precipitação Vento Pressão Humidade
    00:00 +5°C° 0 mm 6 m/s 752 mmHg 75%
    01:00 +5°C° 0 mm 5 m/s 753 mmHg 81%
    02:00 +5°C° 0 mm 5 m/s 753 mmHg 81%
    03:00 +3°C° 0 mm 5 m/s 753 mmHg 81%
    04:00 +3°C° 0 mm 5 m/s 754 mmHg 81%
    05:00 +4°C° 0 mm 6 m/s 754 mmHg 79%
    06:00 +4°C° 0 mm 6 m/s 755 mmHg 78%
    07:00 +4°C° 0 mm 7 m/s 756 mmHg 75%
    08:00 +6°C° 0 mm 7 m/s 756 mmHg 68%
    09:00 +8°C° 0 mm 7 m/s 756 mmHg 62%
    10:00 +10°C° 0 mm 7 m/s 757 mmHg 55%
    11:00 +10°C° 0.1 mm 7 m/s 757 mmHg 52%
    12:00 +11°C° 0.1 mm 7 m/s 757 mmHg 49%
    13:00 +11°C° 0.1 mm 7 m/s 758 mmHg 46%
    14:00 +11°C° 0.1 mm 7 m/s 758 mmHg 47%
    15:00 +11°C° 0.1 mm 6 m/s 758 mmHg 49%
    16:00 +10°C° 0.1 mm 6 m/s 758 mmHg 51%
    17:00 +9°C° 0 mm 5 m/s 759 mmHg 53%
    18:00 +8°C° 0 mm 4 m/s 759 mmHg 56%
    19:00 +8°C° 0 mm 3 m/s 760 mmHg 59%
    20:00 +7°C° 0 mm 3 m/s 760 mmHg 61%
    21:00 +7°C° 0 mm 3 m/s 761 mmHg 63%
    22:00 +5°C° 0 mm 3 m/s 762 mmHg 65%
    23:00 +5°C° 0 mm 3 m/s 762 mmHg 68%

    Amanhã, 26 Setembro, Quarta-feira

    Tempo Temperatura Precipitação Vento Pressão Humidade
    00:00 +5°C° 0 mm 2 m/s 762 mmHg 70%
    01:00 +4°C° 0 mm 2 m/s 763 mmHg 73%
    02:00 +4°C° 0 mm 2 m/s 763 mmHg 74%
    03:00 +4°C° 0 mm 2 m/s 763 mmHg 75%
    04:00 +4°C° 0 mm 2 m/s 763 mmHg 76%
    05:00 +4°C° 0 mm 2 m/s 763 mmHg 75%
    06:00 +5°C° 0 mm 2 m/s 763 mmHg 73%
    07:00 +6°C° 0 mm 2 m/s 763 mmHg 71%
    08:00 +8°C° 0 mm 3 m/s 763 mmHg 65%
    09:00 +10°C° 0 mm 3 m/s 763 mmHg 59%
    10:00 +12°C° 0 mm 4 m/s 763 mmHg 53%
    11:00 +12°C° 0 mm 4 m/s 762 mmHg 51%
    12:00 +13°C° 0 mm 4 m/s 762 mmHg 48%
    13:00 +14°C° 0 mm 4 m/s 761 mmHg 45%
    14:00 +14°C° 0 mm 4 m/s 761 mmHg 47%
    15:00 +14°C° 0 mm 3 m/s 760 mmHg 49%
    16:00 +13°C° 0 mm 3 m/s 759 mmHg 50%
    17:00 +13°C° 0 mm 3 m/s 759 mmHg 52%
    18:00 +12°C° 0 mm 3 m/s 759 mmHg 53%
    19:00 +11°C° 0 mm 3 m/s 759 mmHg 54%
    20:00 +11°C° 0 mm 3 m/s 759 mmHg 54%
    21:00 +11°C° 0 mm 4 m/s 758 mmHg 53%
    22:00 +10°C° 0 mm 5 m/s 758 mmHg 53%
    23:00 +12°C° 0 mm 5 m/s 758 mmHg 51%

    Depois de amanhã, 27 Setembro, Quinta-feira

    Tempo Temperatura Precipitação Vento Pressão Humidade
    00:00 +12°C° 0 mm 5 m/s 757 mmHg 49%
    01:00 +11°C° 0 mm 6 m/s 757 mmHg 47%
    02:00 +11°C° 0 mm 6 m/s 757 mmHg 46%
    03:00 +11°C° 0 mm 6 m/s 756 mmHg 45%
    04:00 +11°C° 0 mm 6 m/s 756 mmHg 44%
    05:00 +11°C° 0 mm 6 m/s 756 mmHg 45%
    06:00 +11°C° 0 mm 6 m/s 756 mmHg 46%
    07:00 +11°C° 0 mm 6 m/s 756 mmHg 48%
    08:00 +14°C° 0 mm 6 m/s 756 mmHg 49%
    09:00 +15°C° 0 mm 6 m/s 756 mmHg 50%
    10:00 +16°C° 0 mm 7 m/s 756 mmHg 51%
    11:00 +17°C° 0 mm 7 m/s 756 mmHg 51%
    12:00 +20°C° 0 mm 7 m/s 756 mmHg 52%
    13:00 +21°C° 0 mm 7 m/s 755 mmHg 52%
    14:00 +21°C° 0 mm 6 m/s 755 mmHg 55%
    15:00 +20°C° 0 mm 5 m/s 755 mmHg 58%
    16:00 +20°C° 0 mm 5 m/s 755 mmHg 61%
    17:00 +18°C° 0 mm 4 m/s 755 mmHg 66%
    18:00 +17°C° 0 mm 3 m/s 755 mmHg 72%
    19:00 +14°C° 0 mm 3 m/s 755 mmHg 77%
    20:00 +14°C° 0 mm 3 m/s 755 mmHg 78%
    21:00 +13°C° 0 mm 3 m/s 755 mmHg 79%
    22:00 +13°C° 0 mm 3 m/s 754 mmHg 80%
    23:00 +13°C° 0 mm 3 m/s 754 mmHg 80%

    28 Setembro, Sexta-feira

    Tempo Temperatura Precipitação Vento Pressão Humidade
    00:00 +12°C° 0 mm 3 m/s 753 mmHg 79%
    01:00 +12°C° 0 mm 3 m/s 753 mmHg 78%
    02:00 +12°C° 0 mm 3 m/s 752 mmHg 76%
    03:00 +11°C° 0 mm 3 m/s 752 mmHg 73%
    04:00 +11°C° 0 mm 3 m/s 751 mmHg 70%
    05:00 +12°C° 0 mm 4 m/s 751 mmHg 67%
    06:00 +12°C° 0 mm 4 m/s 751 mmHg 64%
    07:00 +13°C° 0 mm 5 m/s 750 mmHg 61%
    08:00 +15°C° 0 mm 5 m/s 750 mmHg 57%
    09:00 +17°C° 0 mm 5 m/s 750 mmHg 53%
    10:00 +20°C° 0 mm 6 m/s 749 mmHg 49%
    11:00 +21°C° 0 mm 6 m/s 749 mmHg 45%
    12:00 +22°C° 0 mm 6 m/s 749 mmHg 42%
    13:00 +23°C° 0 mm 6 m/s 748 mmHg 38%
    14:00 +22°C° 0 mm 5 m/s 748 mmHg 41%
    15:00 +21°C° 0 mm 4 m/s 748 mmHg 44%
    16:00 +20°C° 0 mm 4 m/s 748 mmHg 47%
    17:00 +19°C° 0 mm 3 m/s 748 mmHg 54%
    18:00 +17°C° 0 mm 3 m/s 749 mmHg 61%
    19:00 +14°C° 0 mm 3 m/s 749 mmHg 68%
    20:00 +13°C° 0 mm 3 m/s 749 mmHg 73%
    21:00 +13°C° 0 mm 2 m/s 750 mmHg 79%
    22:00 +13°C° 0 mm 2 m/s 750 mmHg 84%
    23:00 +12°C° 0 mm 2 m/s 750 mmHg 83%

    29 Setembro, Sábado

    Tempo Temperatura Precipitação Vento Pressão Humidade
    00:00 +12°C° 0 mm 2 m/s 750 mmHg 82%
    01:00 +12°C° 0 mm 2 m/s 750 mmHg 81%
    02:00 +12°C° 0 mm 2 m/s 750 mmHg 79%
    03:00 +10°C° 0 mm 2 m/s 751 mmHg 77%
    04:00 +10°C° 0 mm 2 m/s 751 mmHg 75%
    05:00 +10°C° 0 mm 2 m/s 751 mmHg 75%
    06:00 +10°C° 0 mm 3 m/s 751 mmHg 74%
    07:00 +10°C° 0 mm 3 m/s 752 mmHg 74%
    08:00 +11°C° 0.1 mm 3 m/s 752 mmHg 68%
    09:00 +12°C° 0.1 mm 4 m/s 753 mmHg 63%
    10:00 +13°C° 0.1 mm 4 m/s 753 mmHg 57%
    11:00 +14°C° 0.1 mm 5 m/s 753 mmHg 55%
    12:00 +14°C° 0.1 mm 5 m/s 753 mmHg 52%
    13:00 +14°C° 0.1 mm 5 m/s 753 mmHg 49%
    14:00 +14°C° 0 mm 5 m/s 754 mmHg 51%
    15:00 +13°C° 0 mm 5 m/s 754 mmHg 53%
    16:00 +13°C° 0 mm 5 m/s 754 mmHg 56%
    17:00 +11°C° 0 mm 4 m/s 755 mmHg 59%
    18:00 +10°C° 0 mm 3 m/s 755 mmHg 62%
    19:00 +9°C° 0 mm 3 m/s 756 mmHg 66%
    20:00 +8°C° 0 mm 3 m/s 756 mmHg 67%
    21:00 +7°C° 0 mm 3 m/s 756 mmHg 68%
    22:00 +7°C° 0 mm 3 m/s 757 mmHg 70%
    23:00 +5°C° 0 mm 3 m/s 757 mmHg 71%

    30 Setembro, Domingo

    Tempo Temperatura Precipitação Vento Pressão Humidade
    00:00 +5°C° 0 mm 3 m/s 757 mmHg 73%
    01:00 +5°C° 0 mm 2 m/s 757 mmHg 74%
    02:00 +5°C° 0 mm 2 m/s 757 mmHg 76%
    03:00 +5°C° 0 mm 2 m/s 757 mmHg 77%
    04:00 +4°C° 0 mm 2 m/s 756 mmHg 79%
    05:00 +4°C° 0 mm 3 m/s 756 mmHg 77%
    06:00 +5°C° 0 mm 3 m/s 756 mmHg 76%
    07:00 +5°C° 0 mm 3 m/s 756 mmHg 75%
    08:00 +7°C° 0 mm 4 m/s 756 mmHg 67%
    09:00 +10°C° 0 mm 4 m/s 756 mmHg 59%
    10:00 +12°C° 0 mm 4 m/s 756 mmHg 51%
    11:00 +13°C° 0 mm 4 m/s 755 mmHg 49%
    12:00 +14°C° 0 mm 5 m/s 754 mmHg 46%
    13:00 +15°C° 0 mm 5 m/s 754 mmHg 44%
    14:00 +14°C° 0 mm 5 m/s 753 mmHg 46%
    15:00 +14°C° 0 mm 4 m/s 753 mmHg 49%
    16:00 +14°C° 0 mm 4 m/s 752 mmHg 51%
    17:00 +12°C° 0 mm 4 m/s 752 mmHg 55%
    18:00 +11°C° 0 mm 4 m/s 752 mmHg 59%
    19:00 +10°C° 0 mm 4 m/s 751 mmHg 63%
    20:00 +9°C° 0 mm 3 m/s 751 mmHg 64%
    21:00 +9°C° 0 mm 3 m/s 751 mmHg 65%
    22:00 +8°C° 0 mm 3 m/s 751 mmHg 67%
    23:00 +8°C° 0 mm 3 m/s 750 mmHg 68%
    Mostrar mais